DECAYED

FENGYUN 1C DEB, 30122 (Decayed)

Orbit data source: Space-Track

FENGYUN 1C DEB, 30122 was space debris in LEO originally from a launch on Mon, 10 May 1999 UTC launched from the Taiyaun Space Center, China (TSC). Fengyun 1C debris stems from the Chinese weather satellite Fengyun-1C, which was intentionally destroyed by a Chinese anti-satellite missile in 2007. This event dramatically increased the amount of space debris, with thousands of trackable fragments posing hazards to satellites and human spaceflight. The Fengyun 1C debris cloud has become a focal point in discussions about space sustainability and the need for international regulations to prevent the creation of new debris.

Not visible in the next 10 days
Identifier
30122, 1999-025SB
Orbit
Decayed
Country
Flag of CNCN / PRC
Related business
Manufacturer
Unknown
Mission
Decayed spacecraft
Bus & Motor
Unknown
Mass
Unknown
Launch date (UTC)
1999-05-10 (27 years ago)
Launch vehicle
Unknown
Launch site
Taiyaun Space Center, China (TSC)
Object type
Payload
Rocket body
Debris
Shape & HBR
Unknown shape, 0.1 m
Radar Cross Section
Small (<0.1 m²)

Expand to show TLE details & history
Last TLE update: 5 months ago

TLE from 5 months ago
0 FENGYUN 1C DEB
1 30122U 99025SB  25334.86171162  .06115333  73722-1  29038-1 0  9999
2 30122  95.8353 300.9879 0022564 156.8568 233.3699 15.89658609977631
Epoch: 2025-11-30T20:40Z
TLE epoch observation values (Epoch: 2025-11-30T20:40:51.883Z)
Latitude
29.90227°
Longitude
-82.54808°
Altitude
316.245 km
Speed
7.716 km/s
True Right ascension
19h 50m 33s
True Declination
29° 44' 39"
Sunlit
Object was in daylight at epoch
Visualization orbit readout
Latitude
Unknown
Longitude
Unknown
Altitude
Unknown
Speed
Unknown
Apparent Right ascension
Unknown
Apparent Declination
Unknown
Sunlit
N/A
Visualization observer readout
Local Sidereal Time
01:37:35
Azimuth
Unknown
Elevation
Unknown
Doppler factor
Unknown
Orbital elements
Apogee altitude
315.12 km
Perigee altitude
284.982 km
Semi-major axis
6,678.188 km
Eccentricity
0.00226
Inclination
95.8353°
RAAN
300.9879°
Arg. of periapsis
156.8568°
True anomaly
233.16275°
Mean anomaly
233.3699°
Eccentric anomaly
233.26629°
Mean motion
3.977 °/min
Orbital period
90.52 mins
BSTAR
0.029038
Loading maneuver chart data...
Computing Atmospheric mass density...

Documentation

Showing up to 5 results
|